Regional Weather Roundup
Issued by NWS Green Bay, WI

Home | Current Version | Previous Version | Text Only | Print | Product List | Glossary On
Versions: 1 2 3 4 5 6 7 8 9 10 11 12 13 14 15 16 17 18 19 20 21 22 23 24 25 26 27 28 29 30 31 32 33 34 35 36 37 38 39 40 41 42 43 44 45 46 47 48 49 50
000
ASUS43 KGRB 300010
RWRGRB

NORTH-CENTRAL AND NORTHEAST WISCONSIN REGIONAL WEATHER ROUNDUP
NATIONAL WEATHER SERVICE GREEN BAY WI
700 PM CDT FRI AUG 29 2014

WIZ005-009-010>012-018-019-300100-
NORTH CENTRAL WISCONSIN

CITY           SKY/WX    TMP DP  RH WIND       PRES   REMARKS
IRONWOOD       NOT AVBL
MANITOWISH WTR RAIN      65  65 100 S6        29.81F
ARBOR VITAE    CLOUDY    69  66  93 S12       29.83S
EAGLE RIVER    MOCLDY    68  66  94 S3        29.83F
LAND O LAKES   MOCLDY    68  66  92 S5        29.83F
RHINELANDER    MOCLDY    68  66  93 N5        29.84F FOG
PHILLIPS       CLOUDY    65  63  94 S9        29.81R
ANTIGO         HVY RAIN  66  65  97 N9        29.82F VSB 1
TOMAHAWK       MOCLDY    69  67  92 W7        29.84R FOG
MERRILL        PTCLDY    72  70  95 CALM      29.80S FOG
$$

WIZ013-073-300100-
NORTHEAST WISCONSIN

CITY           SKY/WX    TMP DP  RH WIND       PRES   REMARKS
IRON MOUNTAIN  CLOUDY    70  67  90 CALM      29.82S FOG
MARINETTE      PTCLDY    72  66  83 S6        29.81S
OCONTO         PTCLDY    73  71  92 S9        29.81S
$$

WIZ017-030-035>037-045-300100-
CENTRAL WISCONSIN

CITY           SKY/WX    TMP DP  RH WIND       PRES   REMARKS
MEDFORD        CLOUDY    66  64  94 NW8       29.85R
WAUSAU         TSTM      74  69  85 SW26G40   29.80R
MOSINEE        MOCLDY    72  64  78 W14G29    29.81S
MARSHFIELD     PTCLDY    74  65  73 E5        29.79S
WISC RAPIDS    PTCLDY    80  71  74 S6        29.80F
STEVENS POINT  RAIN      71  67  88 W3        29.80S
WAUPACA        PTCLDY    82  71  70 S8        29.80S
SHAWANO        CLEAR     82  73  75 S6        29.79F
CLINTONVILLE   PTCLDY    81  70  69 S8        29.79F
$$

WIZ038-039-048-051-300100-
FOX VALLEY

CITY           SKY/WX    TMP DP  RH WIND       PRES   REMARKS
NWS GREEN BAY  PTCLDY    78  72  81 SE13      29.81F
APPLETON       MOCLDY    81  68  65 S10       29.82F
OSHKOSH        CLOUDY    79  70  74 S13       29.81S
FOND DU LAC    CLOUDY    80  70  71 S10       29.83S
$$

WIZ022-050-052-300100-
EAST CENTRAL WISCONSIN

CITY           SKY/WX    TMP DP  RH WIND       PRES   REMARKS
STURGEON BAY   MOCLDY    70  64  83 S20G26    29.84S
MANITOWOC      CLOUDY    71  68  90 S21       29.85F
SHEBOYGAN      CLOUDY    73  69  87 S12       29.86S
$$

LMZ563-521-522-541>543-300100-
LAKESHORE

STATION/POSITION TIME  TEMP    WIND        PRES    VSBY  WAVE
                       AIR SEA DIR/SP/G                  HT/PER
                 (UTC) (F)     (DEG/KT/KT) (MB)    (MI)  (FT/S)
SHEBOYGAN LKSHOR 0000   68 69  170/ 11/ 11 1011.2F
KEWAUNEE LKSHORE 0000   67     180/ 15/ 19 1010.0F
NORTHPORT PIER   0000   69     160/ 11/ 21 1010.2S
N MID LAKE BUOY  0000   68 65  190/ 14/ 16 1010.2F         4/ 6
SISTER BAY LKSHO 0000   71     180/ 23/ 29   N/A
STURGEON BAY CG  0000   67 64  180/ 13     1010.7      6   2
CHAMBERS ISLAND  0000   71     150/  7/ 12 1010.2S
MENOMINEE LKSHOR 0000   71     150/ 12/ 15 1010.3S
$$


USA.gov is the U.S. government's official web portal to all federal, state and local government web resources and services.